[[{"header":{"parameterUnit":"m.s-1","parameterCategory":1,"la1":30.2991,"la2":30.254,"lo1":-89.0895,"lo2":-89.0444,"dy":0.0017,"dx":0.0017,"nx":28,"ny":28,"refTime":"2024-04-07T21:00:00:Z","depth":0,"parameterNumber":2,"parameterNumberName":"U-component_of_WINDS"},"data":[0,0,0,0,0,0,0,0,0,0,0,0,0,0,0,0,0,0,0,0,0,0,0,0,0,0,0,0,0,0,0,0,0,0,0,0,0,0,0,0,0,0,0,0,0,0,0,0,0,0,0,0,0,0,0,0,0,0,-4.6472,-4.6472,0,-4.6515,-4.6516,-4.6516,-4.6456,-4.6454,-4.6452,-4.645,-4.6493,-4.6496,-4.6499,0,0,0,0,0,0,0,0,0,0,0,0,0,-4.6337,-4.6339,-4.6472,-4.6472,-4.6473,-4.6515,-4.6516,-4.6516,-4.6457,-4.6454,-4.6451,-4.6449,-4.6492,-4.6496,-4.6499,0,0,0,0,0,0,0,0,0,0,0,0,0,-4.6389,-4.634,-4.6472,-4.6448,-4.6447,-4.6515,-4.6516,-4.6516,-4.6457,-4.6454,-4.6451,-4.6448,-4.6491,-4.6495,-4.65,-4.6593,0,0,-4.6514,-4.6516,0,0,0,0,0,0,0,0,-4.6386,-4.6394,-4.6451,-4.645,-4.6448,-4.6477,-4.6484,-4.6542,-4.6458,-4.6453,-4.645,-4.6446,-4.649,-4.6495,-4.651,-4.6595,-4.6597,-4.6515,-4.6518,-4.652,-4.6521,0,0,0,0,0,0,0,-4.6383,-4.6392,-4.6489,-4.6452,-4.645,-4.6435,-4.6439,-4.6495,-4.6489,-4.6453,-4.6449,-4.6455,-4.6489,-4.6506,-4.651,-4.6598,-4.6515,-4.6519,-4.6522,-4.6524,-4.6761,-4.6764,0,0,0,0,0,0,-4.6382,-4.6389,-4.6487,-4.649,-4.6409,-4.644,-4.6445,-4.6471,-4.6488,-4.6488,-4.6458,-4.6452,-4.6499,-4.6505,-4.6512,-4.6621,-4.652,-4.6524,-4.6527,-4.6758,-4.6762,-4.6766,0,0,0,0,0,0,-4.6379,-4.6391,-4.6486,-4.6439,-4.645,-4.6446,-4.6476,-4.6474,-4.649,-4.6492,-4.649,-4.6476,-4.6497,-4.6505,-4.6573,-4.6622,-4.6526,-4.653,-4.6754,-4.6759,-4.6764,-4.6841,0,0,0,0,0,0,-4.6376,-4.6391,-4.6426,-4.644,-4.6452,-4.6547,-4.6479,-4.6477,-4.6499,-4.6492,-4.6508,-4.6508,-4.6495,-4.6567,-4.6578,-4.6626,-4.6534,-4.6749,-4.6756,-4.6762,-4.6834,-4.6848,-4.686,0,0,0,0,0,-4.6371,-4.6446,-4.6428,-4.644,-4.6496,-4.655,-4.6557,-4.6541,-4.6503,-4.6538,-4.6539,-4.6507,-4.6615,-4.6574,-4.6586,-4.6637,-4.6746,-4.6754,-4.6762,-4.6828,-4.6845,-4.686,0,0,0,0,0,0,-4.6437,-4.6447,-4.6428,-4.6509,-4.6529,-4.654,-4.6583,-4.656,-4.659,-4.6582,-4.6561,-4.6565,-4.6638,-4.6645,-4.6599,-4.6728,-4.6674,-4.6685,-4.6721,-4.6737,-4.675,-4.6746,-4.6538,0,0,0,0,0,-4.6461,-4.6504,-4.651,-4.6582,-4.6593,-4.6587,-4.6609,-4.6596,-4.6615,-4.6623,-4.6629,-4.6649,-4.6687,-4.6713,-4.6748,-4.6836,-4.6838,-4.6877,-4.689,-4.6901,-4.6909,-4.6955,-4.6972,-4.6791,-4.6791,-4.6791,0,0,-4.6511,-4.6522,-4.655,-4.6595,-4.6609,-4.6653,-4.6594,-4.6644,-4.6676,-4.663,-4.6695,-4.6701,-4.6721,-4.68,-4.6834,-4.6807,-4.696,-4.6911,-4.6919,-4.6922,-4.6965,-4.6982,-4.6997,-4.6797,-4.6796,-4.6795,0,0,-4.6624,-4.6637,-4.6697,-4.6713,-4.6735,-4.6731,-4.6746,-4.6761,-4.6762,-4.6827,-4.6794,-4.6833,-4.6899,-4.6915,-4.6932,-4.7054,-4.7025,-4.7066,-4.7133,-4.7179,-4.7193,-4.7205,-4.7247,-4.7263,-4.7075,-4.7075,-4.7076,0,-4.6682,-4.6748,-4.6731,-4.6783,-4.6804,-4.6766,-4.6827,-4.6843,-4.6876,-4.689,-4.686,-4.6943,-4.6955,-4.7036,-4.7066,-4.7081,-4.7097,-4.7063,-4.7192,-4.7205,-4.7216,-4.7256,-4.7272,-4.708,-4.708,-4.7079,-4.7079,0,-4.6819,-4.6865,-4.6912,-4.6944,-4.6971,-4.7027,-4.7019,-4.7047,-4.7032,-4.7031,-4.7097,-4.711,-4.7147,-4.7166,-4.7151,-4.7246,-4.7228,-4.7196,-4.7141,-4.7238,-4.7275,-4.729,-4.7087,-4.7085,-4.7084,-4.7083,0,0,-4.6972,-4.6996,-4.7013,-4.7028,-4.705,-4.7085,-4.7141,-4.7178,-4.7202,-4.7227,-4.7271,-4.733,-4.73,-4.732,-4.7307,-4.7347,-4.7441,-4.7309,-4.7309,-4.7332,-4.7544,-4.7566,-4.7584,-4.7423,-4.7426,-4.7428,-4.7542,0,-4.7083,-4.7178,-4.7166,-4.7256,-4.7299,-4.7264,-4.7312,-4.7331,-4.7332,-4.7368,-4.737,-4.7411,-4.7369,-4.7381,-4.7419,-4.7421,-4.7483,-4.7413,-4.7463,-4.7465,-4.7457,-4.7604,-4.7628,-4.7734,-4.7556,-4.7559,-4.756,0,-4.7226,-4.7256,-4.7351,-4.7367,-4.7385,-4.7428,-4.7461,-4.7496,-4.7517,-4.7515,-4.7538,-4.7518,-4.7573,-4.7519,-4.7594,-4.7547,-4.7567,-4.7572,-4.7576,-4.7577,-4.7517,-4.7608,-4.7767,-4.7783,-4.7583,-4.7581,-4.758,0,-4.7326,-4.739,-4.7455,-4.7469,-4.7491,-4.7522,-4.7532,-4.755,-4.7573,-4.7603,-4.7617,-4.7653,-4.7672,-4.7699,-4.7689,-4.7652,-4.7766,-4.7712,-4.7765,-4.7765,-4.7788,-4.7786,-4.7951,-4.7805,-4.7805,-4.7805,-4.7804,0,-4.745,-4.7509,-4.7501,-4.754,-4.7606,-4.7592,-4.7657,-4.7663,-4.7679,-4.772,-4.7693,-4.7731,-4.7717,-4.7755,-4.7748,-4.781,-4.7819,-4.7818,-4.7815,-4.7819,-4.7819,-4.783,-4.7822,-4.7809,-4.7808,-4.7807,-4.7806,0,-4.7572,-4.7568,-4.7637,-4.7652,-4.7657,-4.7705,-4.7717,-4.7755,-4.7755,-4.7806,-4.7818,-4.7817,-4.786,-4.7854,-4.7902,-4.7897,-4.7974,-4.7963,-4.7967,-4.7964,-4.8016,-4.8011,-4.8192,-4.8215,-4.8056,-4.8058,-4.8059,0,-4.765,-4.7695,-4.7715,-4.7741,-4.7753,-4.7795,-4.7818,-4.7807,-4.7833,-4.7861,-4.7895,-4.7936,-4.7967,-4.8037,-4.8041,-4.8077,-4.8066,-4.8127,-4.8071,-4.8074,-4.8064,-4.8061,-4.8065,-4.8137,-4.8139,-4.814,-4.8142,0,-4.7789,-4.7786,-4.7821,-4.7857,-4.7887,-4.7914,-4.7939,-4.7961,-4.7951,-4.7982,-4.8026,-4.8051,-4.81,-4.814,-4.8175,-4.8185,-4.8162,-4.816,-4.8174,-4.8177,-4.8176,-4.8176,-4.7995,-4.8155,-4.8154,-4.8153,-4.8152,-4.8151,-4.789,-4.7928,-4.7949,-4.799,-4.8007,-4.8031,-4.8067,-4.8072,-4.8109,-4.8148,-4.8139,-4.8189,-4.8209,-4.8253,-4.8267,-4.8305,-4.8283,-4.8303,-4.8308,-4.8313,-4.8318,-4.8173,-4.8312,-4.8312,-4.8311,-4.8311,-4.8311,0,-4.8026,-4.8039,-4.8076,-4.8112,-4.8144,-4.8121,-4.8148,-4.8176,-4.822,-4.8241,-4.8274,-4.8324,-4.8364,-4.8372,-4.8409,-4.8438,-4.8428,-4.8448,-4.8445,-4.8447,-4.8337,-4.8321,-4.8455,-4.8455,-4.8455,-4.8455,-4.8455,-4.8455,-4.8101,-4.8164,-4.8163,-4.8235,-4.8246,-4.8295,-4.8312,-4.8334,-4.8351,-4.8409,-4.8441,-4.8447,-4.8463,-4.8502,-4.8537,-4.8538,-4.8552,-4.8576,-4.8573,-4.8469,-4.8455,-4.8441,-4.8425,-4.858,-4.858,-4.8679,-4.868,-4.8681]},{"header":{"parameterUnit":"m.s-1","parameterCategory":1,"la1":30.2991,"la2":30.254,"lo1":-89.0895,"lo2":-89.0444,"dy":0.0017,"dx":0.0017,"nx":28,"ny":28,"refTime":"2024-04-07T21:00:00:Z","depth":0,"parameterNumber":3,"parameterNumberName":"V-component_of_WINDS"},"data":[0,0,0,0,0,0,0,0,0,0,0,0,0,0,0,0,0,0,0,0,0,0,0,0,0,0,0,0,0,0,0,0,0,0,0,0,0,0,0,0,0,0,0,0,0,0,0,0,0,0,0,0,0,0,0,0,0,0,2.8727,2.8728,0,2.8804,2.8805,2.8806,2.8834,2.8834,2.8834,2.8833,2.8909,2.8912,2.8914,0,0,0,0,0,0,0,0,0,0,0,0,0,2.8604,2.8606,2.8727,2.8728,2.8729,2.8804,2.8805,2.8806,2.8834,2.8834,2.8834,2.8833,2.8909,2.8911,2.8914,0,0,0,0,0,0,0,0,0,0,0,0,0,2.8666,2.8606,2.8727,2.8752,2.8755,2.8804,2.8805,2.8806,2.8834,2.8834,2.8833,2.8833,2.8908,2.8911,2.8914,2.8943,0,0,2.8925,2.8926,0,0,0,0,0,0,0,0,2.8663,2.8671,2.8747,2.875,2.8754,2.8809,2.8789,2.8852,2.8834,2.8804,2.8833,2.8833,2.8876,2.8882,2.8897,2.8946,2.895,2.8925,2.8927,2.8929,2.893,0,0,0,0,0,0,0,2.8659,2.8668,2.8757,2.8748,2.8752,2.8759,2.8768,2.8801,2.8841,2.8807,2.8809,2.8818,2.8878,2.8894,2.8899,2.8951,2.8925,2.8928,2.893,2.8931,2.9029,2.9029,0,0,0,0,0,0,2.865,2.8664,2.8755,2.876,2.8707,2.8762,2.8771,2.8792,2.8841,2.8848,2.8818,2.8819,2.8888,2.8895,2.8902,2.894,2.8929,2.8932,2.8934,2.9028,2.9029,2.9029,0,0,0,0,0,0,2.8647,2.8658,2.8752,2.8713,2.8725,2.8764,2.8787,2.8793,2.881,2.885,2.8857,2.8827,2.8888,2.8897,2.8933,2.8943,2.8933,2.8936,2.9027,2.9028,2.9029,2.9014,0,0,0,0,0,0,2.8644,2.8657,2.8668,2.8713,2.8727,2.8782,2.8788,2.8795,2.8816,2.8817,2.886,2.8867,2.8889,2.8928,2.8936,2.8947,2.8939,2.9027,2.9028,2.9029,2.9014,2.9014,2.9015,0,0,0,0,0,2.8639,2.866,2.8668,2.8679,2.8742,2.8782,2.879,2.8816,2.8816,2.8828,2.8854,2.8865,2.894,2.8931,2.8941,2.8953,2.9026,2.9028,2.9029,2.9014,2.9014,2.9015,0,0,0,0,0,0,2.8614,2.8666,2.8676,2.8712,2.8743,2.8787,2.8802,2.8816,2.8846,2.8846,2.8876,2.8886,2.8919,2.894,2.8929,2.8984,2.8984,2.8987,2.8969,2.897,2.897,2.8965,2.8942,0,0,0,0,0,2.8613,2.8642,2.8685,2.8713,2.8728,2.8762,2.8781,2.8798,2.8831,2.8844,2.8872,2.8903,2.8934,2.8953,2.8983,2.9017,2.9027,2.903,2.9031,2.9031,2.9033,2.9054,2.9056,2.9033,2.9033,2.9033,0,0,2.861,2.8642,2.8658,2.8708,2.8734,2.8763,2.8773,2.8803,2.8825,2.8848,2.8884,2.8906,2.8942,2.8978,2.8995,2.8996,2.9042,2.9032,2.9032,2.9035,2.9055,2.9058,2.9059,2.9034,2.9034,2.9034,0,0,2.862,2.8647,2.8674,2.87,2.874,2.8763,2.8769,2.8812,2.8828,2.8865,2.8884,2.891,2.8962,2.8987,2.9007,2.9029,2.9041,2.9038,2.904,2.906,2.9062,2.9064,2.9072,2.9075,2.9041,2.9041,2.9041,0,2.8612,2.8657,2.8685,2.8715,2.8737,2.8761,2.8788,2.8812,2.8859,2.8873,2.8874,2.8941,2.8967,2.901,2.9015,2.903,2.9039,2.9033,2.9059,2.9061,2.9063,2.9072,2.9075,2.904,2.904,2.904,2.904,0,2.8645,2.8676,2.8693,2.8739,2.8763,2.8791,2.8824,2.8844,2.886,2.8884,2.8921,2.8954,2.8992,2.9003,2.9018,2.9048,2.9048,2.9054,2.9054,2.9065,2.9073,2.9077,2.9039,2.9039,2.904,2.904,0,0,2.864,2.8704,2.8709,2.8731,2.8778,2.8802,2.8832,2.887,2.8888,2.892,2.8946,2.899,2.8996,2.9019,2.9037,2.9055,2.9071,2.9059,2.906,2.906,2.9108,2.9103,2.9106,2.908,2.9081,2.9081,2.9105,0,2.8657,2.8712,2.8739,2.8782,2.8812,2.8836,2.8862,2.8893,2.8916,2.8944,2.8969,2.9001,2.9006,2.902,2.9039,2.9065,2.9081,2.9064,2.9104,2.9105,2.9094,2.9111,2.9106,2.9126,2.9108,2.9109,2.9109,0,2.8683,2.8717,2.8763,2.8808,2.8821,2.8844,2.8882,2.8909,2.8945,2.8961,2.8987,2.9006,2.9038,2.9037,2.9082,2.907,2.9088,2.9104,2.9105,2.911,2.9108,2.9116,2.9133,2.9136,2.9115,2.9114,2.9114,0,2.8676,2.8732,2.8768,2.8786,2.8839,2.8854,2.8877,2.8913,2.8935,2.8968,2.8983,2.9019,2.9039,2.9066,2.9094,2.9091,2.9137,2.9138,2.9151,2.915,2.9159,2.9158,2.918,2.9171,2.9171,2.917,2.917,0,2.8692,2.8719,2.8766,2.8787,2.8819,2.8851,2.8881,2.8906,2.8938,2.8965,2.8987,2.9012,2.9047,2.9077,2.9098,2.9133,2.9142,2.9155,2.916,2.9153,2.9151,2.9165,2.9164,2.9171,2.9171,2.9171,2.9171,0,2.8688,2.8721,2.8761,2.8808,2.8821,2.8842,2.8883,2.8905,2.893,2.8964,2.8973,2.9012,2.9048,2.9079,2.9125,2.914,2.9176,2.9182,2.9164,2.9167,2.9178,2.9177,2.9209,2.9215,2.9202,2.9202,2.9202,0,2.8696,2.8718,2.8769,2.8789,2.8812,2.8844,2.8867,2.8899,2.8922,2.8966,2.8983,2.9021,2.9053,2.9109,2.9141,2.9177,2.9184,2.9193,2.919,2.9182,2.9185,2.9183,2.9186,2.9193,2.9193,2.9193,2.9193,0,2.8707,2.8723,2.8755,2.8794,2.8821,2.8853,2.8886,2.8901,2.8939,2.8964,2.9002,2.9026,2.9075,2.9113,2.9153,2.9176,2.9191,2.9194,2.9199,2.9192,2.918,2.9187,2.9164,2.9193,2.9193,2.9193,2.9193,2.9193,2.871,2.8731,2.8771,2.8807,2.8835,2.8865,2.8889,2.8918,2.895,2.8993,2.901,2.9048,2.9086,2.9141,2.9164,2.9195,2.9197,2.9204,2.9206,2.9207,2.9206,2.9176,2.9202,2.9202,2.9202,2.9202,2.9202,0,2.8723,2.875,2.8783,2.8828,2.8857,2.887,2.8907,2.893,2.8964,2.8998,2.903,2.9074,2.911,2.9146,2.9185,2.9202,2.921,2.9211,2.921,2.9215,2.9202,2.9194,2.9204,2.9204,2.9204,2.9204,2.9204,2.9204,2.8733,2.877,2.879,2.8842,2.8868,2.8907,2.8927,2.8956,2.8983,2.9031,2.9063,2.9086,2.9121,2.9163,2.9197,2.9207,2.922,2.9219,2.923,2.9217,2.9216,2.9216,2.9208,2.9222,2.9222,2.9242,2.9242,2.9242]}]]